Elmira, NY

7:08 PM EST on December 15, 2019 (GMT -0500)
Elmira-Corning Regional

Weather History for KELM - October, 2019

Change the Weather History Date:

Sunday, October 27, 2019

  Actual Average Record
Temperature  
Mean Temperature 59 °F -  
Max Temperature 68 °F 57 °F 83 °F (1947)
Min Temperature 52 °F 35 °F 21 °F (1952)
Degree Days  
Heating Degree Days 6    
Growing Degree Days 9 (Base 50)    
Moisture  
Dew Point 51 °F    
Average Humidity 82    
Maximum Humidity 93    
Minimum Humidity 63    
Precipitation  
Precipitation 0.56 in - - ()
Sea Level Pressure  
Sea Level Pressure 29.83 in    
Wind  
Wind Speed 7 mph (SSW)    
Max Wind Speed 20 mph    
Max Gust Speed 29 mph    
Visibility 8 miles    
Events Rain    
Averages and records for this station are not official NWS values.
T = Trace of Precipitation, MM = Missing Value Source: NWS Daily Summary

Daily Weather History Graph

Daily Weather History Graph

Search for Another Location

Airport or City:

Astronomy

Oct. 27, 2019 Rise Set
Actual Time 7:34 AM EDT 6:08 PM EDT
Civil Twilight 7:05 AM EDT 6:36 PM EDT
Nautical Twilight 6:32 AM EDT 7:09 PM EDT
Astronomical Twilight 5:59 AM EDT 7:42 PM EDT
Moon 6:38 AM EDT (10/27) 6:17 PM EDT (10/27)
Length of Visible Light 11h 31m
Length of Day
10h 34m
Waning Crescent, 0% of the Moon is Illuminated
Oct 27
Waning Crescent
Oct 27
New
Nov 4
First Quarter
Nov 12
Full
Nov 19
Last Quarter

Hourly Weather History & Observations

Time (EDT) Temp. Dew Point Humidity Pressure Visibility Wind Dir Wind Speed Gust Speed Precip Events Conditions
12:53 AM 52.0 °F 50.0 °F 93% 30.03 in 8.0 mi Variable 3.5 mph - N/A Rain Rain
1:34 AM 53.1 °F 48.9 °F 86% 30.01 in 10.0 mi SSE 6.9 mph 16.1 mph N/A Rain Rain
1:53 AM 53.1 °F 48.9 °F 86% 30.01 in 10.0 mi Variable 5.8 mph - N/A   Overcast
2:14 AM 53.1 °F 48.9 °F 86% 29.99 in 10.0 mi Variable 5.8 mph - N/A   Overcast
2:29 AM 53.1 °F 48.9 °F 86% 29.99 in 10.0 mi Variable 3.5 mph - N/A   Overcast
2:53 AM 54.0 °F 48.9 °F 83% 29.97 in 10.0 mi South 8.1 mph - N/A   Overcast
3:43 AM 53.1 °F 48.0 °F 83% 29.92 in 8.0 mi Variable 5.8 mph - 0.01 in Rain Rain
3:53 AM 53.1 °F 48.9 °F 86% 29.92 in 8.0 mi Variable 3.5 mph - 0.02 in Rain Light Rain
4:53 AM 53.1 °F 48.0 °F 83% 29.89 in 10.0 mi East 6.9 mph - 0.00 in Rain Light Rain
5:53 AM 53.1 °F 48.9 °F 86% 29.86 in 5.0 mi Variable 4.6 mph - 0.05 in Rain Rain
6:45 AM 53.1 °F 50.0 °F 89% 29.82 in 5.0 mi Variable 4.6 mph - 0.08 in Rain Heavy Rain
6:53 AM 53.1 °F 50.0 °F 89% 29.82 in 5.0 mi Variable 4.6 mph - 0.10 in Rain Heavy Rain
7:53 AM 53.1 °F 51.1 °F 93% 29.81 in 5.0 mi ESE 8.1 mph - 0.23 in Rain Rain
8:04 AM 53.1 °F 51.1 °F 93% 29.80 in 4.0 mi SE 8.1 mph - 0.03 in Rain Rain
8:11 AM 54.0 °F 51.1 °F 90% 29.80 in 5.0 mi Variable 5.8 mph - 0.04 in Rain Rain
8:20 AM 54.0 °F 51.1 °F 90% 29.79 in 4.0 mi East 9.2 mph - 0.06 in Rain Rain
8:28 AM 54.0 °F 51.1 °F 90% 29.78 in 4.0 mi SE 11.5 mph 18.4 mph 0.07 in Rain Rain
8:53 AM 54.0 °F 52.0 °F 93% 29.75 in 9.0 mi ESE 13.8 mph 20.7 mph 0.10 in Rain Light Rain
9:01 AM 55.0 °F 52.0 °F 89% 29.76 in 8.0 mi Variable 6.9 mph 23.0 mph 0.00 in Rain Light Rain
9:18 AM 55.0 °F 52.0 °F 89% 29.71 in 2.0 mi SE 17.3 mph 26.5 mph 0.04 in Rain Rain
9:26 AM 55.9 °F 53.1 °F 90% 29.75 in 2.0 mi South 8.1 mph 28.8 mph 0.05 in Rain Light Rain
9:38 AM 55.9 °F 53.1 °F 90% 29.75 in 2.0 mi Variable 6.9 mph - 0.05 in Rain Light Rain
9:44 AM 55.9 °F 53.1 °F 90% 29.75 in 9.0 mi Variable 3.5 mph - 0.05 in Rain Light Rain
9:53 AM 57.0 °F 53.1 °F 87% 29.75 in 9.0 mi Variable 3.5 mph - 0.05 in Rain Light Rain
10:28 AM 57.0 °F 54.0 °F 89% 29.74 in 10.0 mi SE 6.9 mph - 0.00 in Rain Light Rain
10:53 AM 57.9 °F 55.0 °F 90% 29.72 in 10.0 mi SSE 9.2 mph - 0.00 in Rain Light Rain
11:21 AM 62.1 °F 57.0 °F 84% 29.71 in 10.0 mi Variable 6.9 mph - 0.00 in Rain Light Rain
11:33 AM 62.1 °F 57.0 °F 84% 29.71 in 10.0 mi Variable 3.5 mph - 0.00 in Rain Light Rain
11:53 AM 64.0 °F 57.9 °F 80% 29.70 in 10.0 mi North - - 0.00 in Rain Light Rain
12:53 PM 66.0 °F 57.0 °F 73% 29.67 in 10.0 mi SSW 19.6 mph 26.5 mph 0.00 in   Overcast
1:53 PM 66.0 °F 55.9 °F 70% 29.66 in 10.0 mi SW 12.7 mph 24.2 mph N/A   Overcast
2:53 PM 66.0 °F 55.9 °F 70% 29.70 in 10.0 mi West 11.5 mph 20.7 mph 0.01 in   Overcast
3:53 PM 64.0 °F 51.1 °F 63% 29.73 in 10.0 mi West 13.8 mph 23.0 mph N/A   Overcast
4:53 PM 62.1 °F 50.0 °F 65% 29.78 in 10.0 mi WSW 16.1 mph 24.2 mph N/A   Overcast
5:53 PM 59.0 °F 48.0 °F 67% 29.83 in 10.0 mi West 13.8 mph 23.0 mph N/A   Overcast
6:53 PM 57.9 °F 46.9 °F 67% 29.87 in 10.0 mi West 13.8 mph 21.9 mph N/A   Overcast
7:53 PM 57.0 °F 46.9 °F 69% 29.90 in 10.0 mi WSW 11.5 mph - N/A   Overcast
8:53 PM 57.0 °F 46.9 °F 69% 29.92 in 10.0 mi West 9.2 mph - N/A   Overcast
9:53 PM 55.9 °F 48.0 °F 75% 29.93 in 10.0 mi West 12.7 mph - N/A   Overcast
10:15 PM 55.9 °F 48.0 °F 75% 29.95 in 10.0 mi West 11.5 mph 19.6 mph N/A   Mostly Cloudy
10:53 PM 55.9 °F 48.0 °F 75% 29.96 in 10.0 mi WSW 8.1 mph - N/A   Overcast
11:53 PM 55.9 °F 46.9 °F 72% 29.98 in 10.0 mi WSW 6.9 mph - N/A   Overcast